Wetbulb
44.46 38.45 34.29 39.56 40.88 40.60 40.97 42.08 41.08 42.11 44.21 44.53 44.20 44.59 46.51 48.80 48.68 51.96 54.53 56.35 57.66 58.84 61.33 62.77 63.74 64.87 65.44 66.03 65.97 66.23 66.29 66.99 67.10 67.06 65.84 64.94 64.79 66.27 66.96 67.82 67.73 67.34 67.27 66.82
41.03 35.91 40.85 41.74 42.06 40.51 40.47 38.70 39.31 40.73 42.70 43.53 44.74 44.21 47.62 49.06 49.01 49.83 52.14 54.25 55.19 56.29 57.17 58.04 59.97 61.34 61.41 62.03 63.43 64.65 64.85 65.44 66.08 66.59 66.83 66.55 66.05 66.66 67.00 67.74 67.54 67.35 67.13 67.05
35.55 37.18 42.91 40.14 38.41 37.41 38.90 38.17 37.71 37.50 40.77 41.53 40.81 41.38 44.64 48.23 49.42 50.51 51.01 51.78 52.90 53.74 54.47 55.73 55.38 56.16 55.97 56.00 57.52 59.91 62.69 63.67 64.39 65.26 65.37 65.25 65.30 65.04 64.20 64.79 65.35 65.93 66.36 66.42
37.41 40.54 38.96 38.26 36.48 38.18 34.73 41.16 40.57 39.28 37.61 33.62 39.18 33.63 41.46 44.74 44.13 45.75 48.35 50.07 51.18 51.98 52.34 52.74 53.45 53.98 53.53 54.44 54.38 54.39 54.93 55.87 56.85 59.77 62.76 63.13 62.53 61.92 63.65 64.89 65.33 65.44 65.81 65.32
35.31 37.43 38.06 36.08 36.35 40.11 36.86 41.40 39.42 38.98 37.48 36.41 36.30 33.12 38.43 39.07 39.80 42.13 43.81 44.67 45.83 46.97 47.41 49.38 51.26 52.23 53.78 52.81 53.47 54.24 54.31 54.28 54.59 55.64 55.73 58.27 60.14 61.33 62.05 62.46 62.73 63.02 64.35 65.03
38.85 42.69 40.37 38.63 40.47 40.93 42.97 39.90 38.61 39.46 37.17 30.30 35.64 34.63 36.10 38.98 38.31 39.77 41.35 43.76 45.33 45.33 45.33 45.69 47.79 49.02 50.47 51.49 52.18 53.37 53.19 52.59 53.45 53.72 53.94 54.29 54.50 55.01 55.25 56.54 56.95 58.54 60.65 62.09
36.23 37.69 40.89 41.72 38.29 41.26 40.68 36.36 29.77 27.88 27.71 27.78 33.38 32.21 36.75 41.15 42.16 41.58 41.55 42.37 43.95 45.43 45.59 46.30 46.92 47.83 48.66 49.45 50.46 51.16 51.62 50.49 51.91 52.64 52.65 52.95 53.23 53.74 53.75 54.23 54.71 56.18 57.51 58.64
31.75 28.83 37.72 41.64 39.11 36.71 37.13 35.97 30.15 23.69 25.58 29.90 32.35 30.08 36.76 41.95 42.42 41.16 41.87 42.67 43.51 45.08 46.27 47.12 47.70 48.46 48.62 48.63 49.31 49.44 49.77 49.23 50.33 51.27 51.57 52.29 52.76 53.34 53.40 53.48 53.94 55.37 56.95 56.96
31.66 31.24 39.52 40.22 41.08 40.84 36.54 32.77 38.18 31.14 29.82 28.61 33.26 36.45 40.22 42.99 39.99 40.91 41.20 41.69 43.08 44.98 45.71 46.81 47.83 48.41 48.41 48.68 48.72 49.09 48.65 48.22 48.46 48.46 49.35 50.01 50.80 51.31 51.33 52.23 53.46 53.95 53.52 52.23
36.88 30.23 37.58 39.34 41.27 41.00 38.52 40.12 30.89 31.07 24.53 23.18 30.72 31.94 33.57 38.22 38.28 40.67 41.33 41.93 43.48 44.17 45.30 46.67 47.59 47.63 47.82 48.00 47.75 47.66 47.86 47.53 47.24 47.50 47.56 47.53 47.93 48.97 49.78 50.61 50.29 50.63 50.19 50.18
38.59 35.01 34.05 38.16 36.12 35.03 35.63 34.56 35.16 34.92 31.49 25.46 24.87 31.17 39.53 38.25 38.91 39.92 42.29 42.26 43.25 44.28 44.82 46.24 47.67 48.08 47.81 47.53 46.93 46.97 46.68 46.46 46.26 46.59 46.48 46.40 46.18 46.49 47.33 47.85 47.94 47.85 48.24 48.37
34.72 35.22 30.46 33.37 38.67 39.87 37.68 36.45 36.22 29.38 27.71 30.75 28.87 30.39 41.49 40.11 40.35 41.37 42.39 42.56 44.03 44.99 46.08 47.08 47.75 47.42 46.79 46.65 46.73 46.57 46.68 46.39 46.72 46.61 46.16 45.75 45.45 45.48 45.75 45.65 45.81 46.48 46.08 46.78
36.70 32.09 29.08 29.15 34.45 38.34 35.26 36.89 36.68 35.19 33.20 29.06 26.68 31.25 40.88 41.45 41.41 43.20 43.08 43.65 44.40 44.86 46.03 46.80 46.93 46.51 46.49 46.65 46.56 46.52 46.42 46.42 46.13 45.55 45.77 45.16 45.16 44.96 44.91 44.73 44.98 45.51 45.49 45.47
38.72 33.22 29.59 26.31 28.44 33.10 32.37 34.33 36.16 34.50 29.76 29.81 31.10 33.27 38.32 40.42 41.05 42.70 43.38 44.33 44.56 44.85 45.47 46.30 46.60 46.65 46.97 47.03 46.71 46.49 46.41 46.41 45.50 45.18 45.24 44.98 44.46 44.20 44.19 44.09 44.22 44.39 44.66 44.48
36.62 29.48 31.03 32.43 33.24 33.37 32.08 31.78 33.79 33.72 33.72 29.85 33.16 33.61 37.54 40.29 41.42 42.70 43.48 43.83 42.77 43.43 44.26 44.93 45.41 46.37 46.74 46.65 46.47 46.57 46.79 46.07 45.47 44.55 44.16 43.96 43.96 43.67 43.50 43.33 43.37 43.21 43.43 43.09
35.74 28.80 28.63 26.52 30.59 30.62 28.37 31.17 32.63 33.17 33.33 33.13 33.67 33.82 41.08 42.39 42.91 41.60 41.99 43.07 43.02 43.18 44.41 45.14 44.94 45.28 45.44 45.72 45.65 45.20 45.13 44.55 44.54 43.91 43.59 43.62 43.07 42.50 42.46 42.33 42.24 42.00 41.86 41.57
32.23 29.27 26.77 23.37 27.22 27.93 23.99 29.03 31.36 32.84 34.94 34.54 30.41 35.77 39.93 39.18 39.77 40.90 41.39 42.84 43.24 44.32 44.37 44.90 45.23 45.85 45.71 45.36 45.11 44.50 44.50 44.49 43.57 43.23 42.46 42.25 42.17 41.43 41.46 41.37 40.90 40.77 40.65 40.62
30.42 28.88 29.12 23.91 23.93 16.28 30.07 34.15 34.37 33.36 35.29 36.98 36.73 37.77 39.46 38.73 40.49 41.68 42.91 42.54 43.00 44.00 44.91 45.54 45.42 46.10 47.01 46.87 45.70 45.14 44.14 43.55 43.20 42.61 41.77 41.48 41.22 40.96 40.41 39.89 39.64 39.74 39.86 39.47
34.64 30.77 25.57 21.87 21.66 25.49 27.97 31.55 31.10 29.84 30.20 35.54 34.68 36.51 38.20 39.59 40.18 40.44 42.94 43.02 42.55 42.95 44.04 45.09 46.11 47.03 46.89 46.41 44.44 42.59 41.96 41.89 41.44 40.23 39.76 38.97 39.01 37.72 37.32 37.10 37.57 37.59 37.32 36.72
30.50 33.15 27.68 24.14 18.66 15.76 28.45 33.63 36.16 35.75 25.46 36.75 37.47 37.21 36.59 37.38 31.68 36.40 41.98 42.47 42.19 42.74 43.08 42.76 43.60 44.52 44.63 44.23 42.93 41.22 40.05 39.01 38.56 37.48 36.40 36.21 35.63 36.51 36.78 36.54 35.90 34.98 35.78 34.34
23.80 25.57 24.04 24.71 21.74 24.90 32.57 35.14 37.14 22.61 26.99 36.76 37.43 37.24 36.81 34.77 37.26 40.31 41.91 41.57 41.64 41.46 41.93 41.75 41.09 41.38 41.41 39.70 39.10 38.55 38.13 37.23 36.47 35.13 33.66 33.24 34.20 34.33 36.01 35.23 33.74 33.60 32.87 32.42
23.68 22.76 22.77 24.20 21.58 18.65 36.14 34.30 27.87 34.02 38.13 37.33 37.61 38.03 37.40 38.15 39.43 40.17 40.76 40.60 39.66 39.05 39.04 38.05 37.49 37.09 35.88 36.23 36.71 35.98 35.99 33.79 33.84 33.19 32.06 30.79 31.00 31.82 32.96 32.26 31.40 31.40 32.11 31.06
23.21 28.48 27.14 27.59 27.06 35.44 36.70 36.43 38.52 39.53 37.49 38.14 38.58 39.77 38.96 37.93 37.68 39.03 39.63 39.48 38.71 37.18 35.39 34.58 35.23 34.28 33.85 33.62 34.30 33.33 32.34 31.93 31.12 29.83 27.75 28.27 28.80 29.99 30.78 31.72 30.48 31.23 31.56 30.59
29.24 33.04 27.70 29.11 32.04 33.73 36.27 37.49 38.14 38.31 38.21 39.40 40.15 39.63 38.57 37.02 37.84 36.41 36.23 35.64 35.06 34.70 33.86 32.79 32.65 32.24 32.07 31.34 29.89 30.95 31.04 29.86 29.95 29.50 27.47 26.90 27.74 28.47 28.58 30.81 31.39 31.88 31.20 29.76
32.29 31.05 28.95 28.78 32.05 34.39 36.19 37.20 37.52 38.00 38.89 37.71 37.68 37.16 37.24 37.77 36.34 36.20 35.39 34.80 34.81 33.77 32.36 31.21 30.63 30.05 30.19 29.02 28.07 28.17 28.50 28.12 29.04 27.73 26.74 28.06 29.09 29.16 28.33 28.93 29.78 30.12 29.86 30.83
32.89 30.34 28.55 27.99 34.57 34.82 35.45 38.46 39.07 37.08 37.23 38.09 36.79 36.10 35.58 35.74 35.94 36.32 35.58 35.64 34.81 32.92 32.78 32.48 31.14 27.82 29.12 28.38 28.13 28.26 28.13 27.93 28.08 27.19 26.71 28.18 28.24 27.93 28.36 28.06 27.33 29.31 29.17 28.60
MSLP
1015.53 1016.39 1016.37 1016.05 1015.06 1014.23 1012.08 1010.17 1009.67 1010.01 1010.33 1009.98 1009.03 1008.17 1007.66 1007.92 1008.29 1007.94 1007.60 1007.84 1008.16 1008.50 1008.91 1009.53 1010.25 1010.80 1011.28 1011.69 1012.00 1012.42 1012.86 1013.38 1013.91 1014.31 1014.63 1014.97 1015.09 1015.30 1015.39 1015.33 1015.50 1015.70 1015.84 1016.03
1015.19 1015.76 1016.22 1016.34 1015.63 1014.57 1012.75 1011.62 1011.14 1011.29 1011.22 1010.98 1009.59 1008.80 1008.15 1007.80 1008.03 1008.11 1007.98 1007.94 1008.24 1008.58 1009.16 1009.90 1010.54 1011.09 1011.59 1011.79 1012.12 1012.36 1012.69 1013.07 1013.49 1013.78 1014.15 1014.46 1014.68 1014.77 1014.75 1014.72 1014.98 1015.15 1015.26 1015.42
1014.93 1015.72 1015.63 1015.94 1015.96 1014.96 1013.91 1012.84 1012.13 1012.00 1011.84 1011.65 1010.80 1008.92 1008.05 1007.89 1008.14 1008.29 1008.57 1008.70 1008.72 1008.96 1009.34 1009.78 1010.53 1011.01 1011.59 1012.07 1012.52 1012.84 1012.94 1013.26 1013.56 1013.90 1014.15 1014.55 1014.75 1014.83 1014.87 1014.83 1014.88 1014.94 1014.96 1015.10
1015.29 1014.68 1014.87 1015.22 1016.04 1015.88 1014.78 1013.82 1012.94 1012.59 1012.35 1011.75 1011.49 1009.14 1007.89 1007.66 1008.22 1008.57 1008.75 1009.00 1009.23 1009.58 1010.16 1010.39 1010.64 1011.18 1011.67 1012.24 1013.04 1013.40 1013.74 1013.87 1014.22 1014.34 1014.40 1014.43 1014.52 1014.46 1014.29 1014.31 1014.46 1014.63 1014.76 1014.98
1014.02 1014.24 1014.68 1015.06 1015.51 1015.39 1015.24 1014.46 1013.96 1013.58 1013.16 1012.72 1011.82 1011.09 1008.86 1009.14 1008.82 1008.83 1009.22 1009.80 1010.25 1010.55 1010.79 1010.93 1011.21 1011.60 1011.86 1012.93 1013.33 1013.56 1013.88 1014.39 1014.61 1014.69 1014.65 1014.57 1014.61 1014.58 1014.55 1014.61 1014.71 1014.77 1014.70 1014.63
1014.66 1014.89 1014.79 1014.62 1014.88 1014.96 1014.47 1014.58 1015.03 1014.62 1014.18 1013.25 1012.19 1011.45 1009.60 1009.29 1009.96 1010.06 1010.52 1010.87 1011.32 1011.69 1011.86 1011.90 1012.20 1012.42 1012.87 1013.49 1013.75 1013.86 1014.05 1014.43 1014.77 1014.72 1014.91 1014.92 1014.90 1014.85 1014.88 1014.94 1015.02 1014.94 1014.87 1014.97
1014.99 1015.00 1015.00 1014.94 1014.84 1014.81 1014.48 1014.66 1015.62 1015.87 1015.46 1013.96 1013.27 1012.38 1010.29 1009.95 1010.42 1010.86 1011.15 1011.32 1011.77 1012.17 1012.44 1012.72 1012.89 1013.04 1013.38 1013.74 1014.03 1014.18 1014.35 1014.65 1014.83 1014.89 1015.06 1015.17 1015.22 1015.25 1015.24 1015.22 1015.16 1015.15 1015.14 1015.25
1014.96 1015.18 1014.95 1014.77 1014.59 1014.46 1014.40 1014.79 1015.61 1015.93 1015.49 1014.18 1013.80 1011.84 1010.39 1010.58 1010.95 1011.46 1011.75 1011.95 1012.27 1012.49 1012.78 1013.01 1013.33 1013.45 1013.70 1014.02 1014.26 1014.54 1014.67 1014.88 1015.06 1015.21 1015.36 1015.52 1015.59 1015.55 1015.61 1015.71 1015.67 1015.52 1015.49 1015.76
1015.66 1015.19 1015.50 1015.53 1015.26 1014.78 1014.98 1015.56 1016.13 1016.58 1017.00 1015.65 1013.13 1011.74 1011.19 1010.48 1011.36 1011.56 1011.86 1012.20 1012.42 1012.61 1012.95 1013.23 1013.66 1013.91 1014.11 1014.20 1014.43 1014.64 1014.86 1015.14 1015.28 1015.37 1015.56 1015.76 1015.85 1015.92 1015.95 1016.03 1016.01 1016.03 1016.28 1016.39
1016.76 1015.98 1015.78 1015.51 1015.35 1015.21 1015.09 1015.28 1015.99 1017.18 1016.93 1015.13 1012.90 1011.98 1011.03 1010.94 1011.49 1011.73 1012.00 1012.39 1012.58 1012.93 1013.09 1013.35 1013.66 1014.10 1014.49 1014.63 1014.82 1015.00 1015.14 1015.24 1015.45 1015.60 1015.83 1016.06 1016.21 1016.32 1016.43 1016.35 1016.41 1016.51 1016.63 1016.78
1017.93 1017.38 1016.78 1016.19 1015.62 1015.20 1015.47 1015.49 1016.13 1016.61 1016.96 1015.70 1013.75 1011.80 1010.98 1011.70 1012.16 1012.16 1012.42 1012.77 1012.90 1012.96 1013.12 1013.29 1013.52 1013.98 1014.57 1014.91 1015.11 1015.29 1015.34 1015.49 1015.68 1015.84 1016.07 1016.31 1016.54 1016.70 1016.72 1016.80 1016.90 1016.93 1017.03 1017.08
1019.58 1018.78 1017.62 1016.66 1016.51 1016.36 1016.41 1015.78 1016.24 1016.58 1017.13 1016.16 1015.04 1012.85 1011.97 1012.22 1012.56 1012.70 1012.78 1012.81 1012.99 1013.15 1013.14 1013.18 1013.49 1013.97 1014.55 1014.90 1015.16 1015.31 1015.34 1015.48 1015.66 1015.84 1016.23 1016.45 1016.68 1016.87 1016.93 1017.09 1017.35 1017.37 1017.47 1017.59
1019.92 1019.46 1018.53 1018.00 1017.60 1016.97 1016.76 1016.73 1017.02 1017.78 1017.69 1016.23 1015.27 1012.90 1012.20 1012.15 1012.21 1012.35 1012.71 1013.09 1013.03 1013.01 1013.15 1013.35 1013.67 1014.11 1014.47 1014.70 1014.88 1015.12 1015.28 1015.37 1015.67 1016.09 1016.38 1016.63 1016.82 1016.90 1017.06 1017.29 1017.54 1017.64 1017.75 1017.99
1019.95 1019.67 1019.31 1018.82 1018.60 1018.54 1018.07 1017.61 1017.61 1017.70 1017.43 1016.39 1014.78 1013.91 1012.71 1012.23 1012.36 1012.54 1012.85 1013.00 1013.01 1012.77 1012.85 1013.12 1013.57 1013.90 1014.16 1014.33 1014.58 1014.83 1015.06 1015.30 1015.59 1016.08 1016.27 1016.53 1016.84 1017.10 1017.29 1017.43 1017.74 1017.91 1018.07 1018.32
1020.07 1020.23 1020.19 1019.68 1019.21 1018.99 1018.73 1018.47 1018.42 1017.96 1017.43 1016.85 1015.15 1014.28 1013.65 1013.17 1012.88 1012.82 1012.70 1012.72 1012.80 1012.69 1012.84 1012.98 1013.18 1013.49 1013.82 1014.12 1014.41 1014.61 1014.71 1015.15 1015.59 1016.00 1016.31 1016.49 1016.86 1017.18 1017.29 1017.51 1017.86 1018.15 1018.38 1018.69
1020.46 1021.02 1021.01 1020.61 1020.05 1019.74 1019.20 1018.48 1017.81 1017.29 1016.87 1016.25 1015.40 1013.42 1013.68 1012.97 1013.22 1013.12 1012.95 1012.78 1012.60 1012.63 1012.62 1012.81 1012.95 1013.06 1013.52 1013.82 1014.06 1014.30 1014.62 1015.05 1015.47 1015.77 1016.02 1016.35 1016.85 1017.16 1017.38 1017.72 1018.05 1018.37 1018.67 1018.90
1021.06 1021.45 1021.53 1021.08 1020.87 1020.12 1019.28 1017.70 1017.16 1016.36 1015.62 1015.03 1014.07 1012.75 1012.98 1013.34 1013.35 1013.15 1013.08 1012.99 1012.62 1012.50 1012.62 1012.76 1012.89 1013.01 1013.08 1013.32 1013.64 1013.97 1014.31 1014.85 1015.39 1015.72 1016.07 1016.47 1016.90 1017.24 1017.49 1017.84 1018.22 1018.58 1018.86 1019.11
1021.49 1021.96 1022.12 1021.76 1021.50 1020.13 1017.86 1017.28 1016.85 1016.39 1015.58 1014.96 1014.43 1013.81 1013.73 1013.69 1013.67 1013.46 1013.40 1013.23 1012.93 1012.74 1012.78 1012.80 1012.86 1012.78 1012.72 1013.00 1013.46 1013.79 1014.28 1014.90 1015.40 1015.90 1016.33 1016.70 1017.09 1017.39 1017.61 1017.96 1018.36 1018.75 1019.02 1019.26
1021.40 1021.67 1021.93 1021.79 1021.00 1019.46 1018.06 1016.43 1016.44 1016.21 1015.54 1015.01 1014.12 1013.79 1013.80 1014.15 1014.13 1013.15 1013.28 1013.55 1013.48 1013.35 1013.16 1012.95 1012.84 1012.57 1012.53 1012.67 1013.30 1013.84 1014.49 1015.01 1015.60 1016.10 1016.56 1017.06 1017.30 1017.54 1017.76 1018.23 1018.69 1019.09 1019.39 1019.77
1021.83 1021.64 1021.86 1021.75 1020.67 1019.01 1016.94 1016.50 1016.46 1016.29 1015.33 1014.04 1014.08 1014.18 1014.40 1014.49 1014.02 1013.43 1013.61 1013.91 1013.84 1013.74 1013.52 1013.40 1013.27 1012.85 1012.64 1012.59 1012.95 1013.80 1014.44 1015.08 1015.68 1016.38 1016.93 1017.26 1017.53 1017.69 1017.93 1018.38 1018.92 1019.40 1019.69 1020.17
1021.93 1021.77 1021.14 1020.65 1019.83 1018.46 1016.39 1016.45 1016.63 1016.23 1014.93 1014.35 1014.54 1014.50 1014.58 1014.59 1014.51 1014.20 1014.25 1014.15 1014.14 1013.98 1013.83 1013.81 1013.69 1013.52 1013.22 1013.22 1013.39 1013.68 1014.43 1015.29 1016.00 1016.70 1017.14 1017.39 1017.71 1017.87 1018.16 1018.70 1019.25 1019.69 1020.18 1020.53
1020.55 1020.54 1020.13 1019.94 1019.01 1017.42 1015.96 1016.30 1016.25 1014.85 1014.48 1014.66 1014.67 1014.67 1014.76 1014.76 1014.58 1014.49 1014.34 1014.28 1014.32 1014.13 1014.03 1014.47 1014.31 1014.09 1013.90 1014.20 1014.35 1014.48 1014.72 1015.29 1016.18 1016.89 1017.27 1017.76 1017.93 1018.17 1018.57 1019.06 1019.59 1019.89 1020.29 1020.66
1019.61 1018.50 1018.10 1018.17 1016.66 1015.83 1015.53 1015.17 1015.06 1014.75 1014.78 1014.67 1014.78 1014.70 1014.88 1014.96 1014.84 1014.67 1014.54 1014.53 1014.54 1014.76 1014.66 1014.83 1014.98 1014.86 1014.36 1014.57 1015.10 1015.31 1015.55 1015.98 1016.38 1017.12 1017.71 1018.12 1018.37 1018.74 1019.01 1019.37 1019.72 1020.12 1020.43 1020.86
1018.13 1017.78 1017.53 1017.03 1015.86 1015.19 1015.15 1015.12 1014.87 1014.82 1014.74 1014.55 1014.65 1014.78 1015.09 1015.05 1014.92 1014.93 1014.88 1014.90 1015.03 1014.98 1015.14 1015.17 1015.29 1015.55 1015.79 1015.11 1015.88 1016.14 1016.75 1016.73 1017.25 1017.71 1018.06 1018.35 1018.87 1019.26 1019.42 1019.62 1019.75 1020.03 1020.44 1020.84
1016.88 1017.00 1016.50 1015.93 1014.83 1014.85 1014.61 1014.22 1014.15 1014.17 1014.31 1014.47 1014.63 1014.87 1015.05 1015.12 1015.02 1015.03 1014.96 1014.99 1015.14 1015.33 1015.24 1015.50 1015.76 1015.95 1016.25 1016.40 1016.58 1016.74 1017.20 1017.53 1017.76 1017.91 1018.20 1018.62 1018.96 1019.18 1019.48 1019.82 1020.09 1020.20 1020.55 1020.73
1015.77 1015.15 1015.25 1014.21 1013.52 1013.83 1013.56 1013.17 1013.54 1013.84 1013.94 1014.10 1014.37 1014.53 1014.67 1014.86 1014.86 1014.81 1014.91 1015.03 1015.30 1015.49 1015.49 1015.43 1015.97 1016.11 1016.50 1016.77 1016.73 1016.97 1017.34 1017.81 1018.05 1018.39 1018.64 1018.85 1019.01 1019.20 1019.53 1019.91 1020.37 1020.66 1020.88 1021.13
Wind_Speed
8 5 4 6 9 9 11 5 7 5 6 4 12 14 14 8 6 9 10 11 10 10 9 11 11 11 10 11 11 11 11 12 10 8 8 8 8 6 7 7 10 11 9 10
4 7 9 1 5 9 9 4 1 3 4 3 4 13 13 12 10 10 11 11 10 9 9 9 9 9 9 10 10 11 11 11 10 7 7 7 6 7 7 6 8 10 11 10
5 2 14 9 2 6 8 7 7 5 2 1 6 11 14 12 13 12 10 10 8 8 9 9 9 9 8 7 5 5 7 8 8 7 6 5 5 3 4 5 5 7 9 9
8 3 8 8 4 3 4 10 8 5 5 1 2 4 3 7 7 9 11 11 11 9 7 6 6 9 8 6 4 4 4 4 1 3 6 9 7 7 6 5 4 5 7 8
3 4 9 10 6 15 6 7 8 5 4 5 6 5 3 3 3 7 2 3 5 6 6 8 8 5 4 6 5 5 5 4 3 2 4 5 7 5 4 4 5 6 6 6
4 2 1 1 3 11 7 7 2 6 3 5 10 5 7 1 4 5 4 5 4 4 4 3 3 1 5 4 4 3 5 4 3 3 2 3 4 4 3 3 3 4 3 2
4 3 1 2 7 5 8 8 1 3 3 5 3 4 11 10 6 4 7 6 6 2 1 1 2 4 5 5 4 3 4 4 3 3 3 2 1 3 4 4 4 3 3 2
5 6 5 4 2 3 9 8 3 3 3 1 3 7 2 2 3 5 6 7 6 2 1 1 2 2 5 5 5 5 5 5 4 4 3 3 3 2 2 2 3 2 2 3
2 2 2 1 2 3 4 6 6 4 1 3 5 6 6 6 4 2 3 5 5 2 2 2 1 1 3 4 4 4 5 4 4 4 3 3 3 4 3 4 3 3 4 3
4 2 1 3 1 2 3 9 4 3 4 5 6 5 8 3 6 8 10 8 4 2 2 1 3 2 1 2 3 2 2 4 3 3 3 3 3 3 3 3 4 4 4 4
4 2 3 3 7 6 3 4 2 5 3 3 4 3 7 8 6 8 10 7 5 2 2 2 2 3 3 2 2 3 3 3 3 2 3 2 2 3 3 3 3 4 3 4
2 3 2 3 4 4 6 8 9 5 5 6 4 6 9 6 5 7 12 8 5 4 4 3 3 4 3 3 4 5 4 4 3 3 3 3 3 2 2 3 3 3 4 4
1 1 3 2 2 3 6 7 3 2 2 6 3 4 3 6 2 6 10 7 6 4 3 3 3 4 5 6 5 4 4 3 3 3 3 3 3 2 3 3 3 3 4 4
3 2 3 5 5 3 2 5 7 11 5 7 15 14 14 17 15 15 13 12 6 5 5 4 5 6 6 5 6 6 5 4 4 4 3 3 3 2 3 3 3 3 3 4
4 2 3 5 4 3 4 5 5 7 12 8 9 16 14 16 16 16 15 12 9 9 7 7 6 6 7 6 6 5 4 5 5 5 4 4 3 3 3 3 3 3 3 3
3 1 1 1 3 4 8 11 11 12 13 15 17 24 14 14 7 12 12 13 12 11 7 7 8 7 6 5 6 5 6 6 5 5 4 4 4 4 3 3 3 3 3 4
3 2 1 0 5 5 5 10 13 11 11 14 16 18 12 14 12 12 12 11 13 12 8 6 9 9 8 8 8 8 7 5 5 4 4 4 4 3 4 4 4 3 3 3
5 2 1 2 2 5 2 7 8 9 13 12 14 18 12 11 11 13 10 11 12 12 11 9 8 9 9 5 4 4 5 5 5 4 4 4 4 4 4 4 3 3 3 3
11 7 2 4 6 7 9 9 5 5 11 14 18 16 10 4 6 6 7 7 9 11 11 10 9 8 9 6 5 6 6 5 5 5 5 4 3 4 5 4 3 3 3 3
7 11 6 4 6 5 8 7 3 1 9 12 5 4 4 4 7 8 14 12 12 12 9 8 9 8 7 6 8 7 6 6 6 5 5 5 4 4 4 4 4 3 3 4
5 4 12 10 8 5 15 9 1 4 5 5 4 5 7 6 7 12 9 10 10 9 10 10 8 7 6 1 5 7 7 6 6 5 5 5 4 5 4 5 3 4 4 5
8 8 6 7 6 11 10 4 8 8 2 3 6 10 7 9 10 10 12 10 10 10 7 7 7 4 2 2 3 5 7 7 7 5 5 4 4 4 4 5 3 4 5 6
7 9 5 9 7 6 6 8 10 8 7 9 8 7 8 9 11 12 11 9 9 10 6 4 5 4 2 4 3 3 5 5 6 5 5 4 5 4 3 4 5 4 4 4
7 9 5 5 12 17 12 11 12 11 13 13 11 11 8 12 9 8 8 6 5 4 4 3 4 5 5 4 3 5 3 4 5 5 4 4 4 4 3 3 3 4 4 4
6 8 6 9 19 13 14 15 14 14 11 8 9 9 10 8 8 9 8 6 4 5 2 1 1 1 3 4 1 3 3 3 3 4 4 3 3 2 4 4 3 2 3 1
9 12 10 10 16 11 14 13 7 9 11 12 9 7 8 9 10 8 7 5 4 5 3 2 3 0 3 3 2 2 3 3 3 2 2 2 3 3 3 4 5 9 6 3
Wind_Direction
129 138 207 195 294 307 319 277 221 33 43 286 230 246 245 177 227 236 224 210 203 197 193 187 196 195 204 210 212 215 213 212 211 203 215 223 226 230 231 228 235 235 231 229
155 240 187 106 280 287 292 339 144 110 33 285 265 261 248 246 238 243 237 223 218 199 186 188 196 206 211 219 221 222 219 221 214 218 217 211 224 230 233 223 233 233 234 229
269 330 150 142 260 268 279 304 36 25 20 199 299 266 242 233 241 239 240 257 258 233 211 189 189 195 196 203 207 229 227 222 222 223 220 223 252 271 257 246 242 242 241 238
242 185 190 169 175 246 277 347 323 307 325 281 322 278 205 218 230 226 239 239 243 231 224 251 201 205 185 163 135 169 161 176 234 273 239 235 238 245 241 235 254 235 224 238
127 189 170 166 219 165 218 336 12 348 295 307 223 256 252 128 243 242 246 329 323 330 315 252 231 222 159 132 170 163 157 136 132 193 228 238 244 266 290 294 278 274 268 254
72 11 215 75 162 208 150 156 341 330 310 261 239 240 260 241 24 17 29 31 13 343 317 280 354 176 159 142 167 156 161 141 145 182 189 246 266 277 282 270 272 269 277 267
162 138 153 219 136 145 227 134 79 198 199 256 76 230 263 324 353 335 306 315 334 11 14 67 172 176 160 164 146 146 158 135 124 115 97 68 342 291 276 284 281 303 266 231
203 180 180 150 274 203 203 156 158 250 223 257 135 236 144 359 333 313 291 292 309 293 117 143 132 140 142 140 142 142 136 133 121 114 104 88 61 39 18 348 313 286 328 27
250 168 155 58 331 297 161 198 111 78 91 280 234 247 257 263 102 86 0 340 310 234 183 153 109 118 134 139 138 138 136 121 108 100 92 76 54 46 42 37 36 51 61 65
8 271 67 92 97 70 272 136 98 93 248 238 247 268 257 174 45 24 6 346 327 276 272 182 162 161 163 147 140 127 131 131 120 104 81 62 53 38 38 46 58 65 80 85
342 305 113 177 202 195 149 183 175 152 236 290 300 260 70 64 33 356 353 346 335 304 270 243 196 170 192 178 173 164 163 157 147 132 114 112 81 55 56 56 54 54 63 63
1 333 236 198 45 343 310 227 193 212 197 238 339 268 85 84 67 25 6 5 355 322 294 247 200 180 180 199 198 202 183 176 171 151 146 126 116 93 78 72 66 56 67 60
88 76 183 215 285 207 232 210 202 111 257 210 241 246 75 92 28 357 349 354 327 323 293 249 220 208 209 206 200 209 198 186 159 170 175 155 156 135 113 102 84 78 82 83
286 344 68 25 28 17 323 267 246 224 245 254 233 273 293 314 326 324 334 334 318 295 256 228 222 221 218 211 209 210 197 185 167 189 183 170 158 148 135 113 103 96 87 100
348 17 350 312 305 245 255 244 258 272 245 259 290 298 299 302 301 319 320 311 284 274 256 223 217 228 224 215 216 216 198 176 181 185 184 182 153 154 136 131 125 110 102 100
35 74 2 276 357 324 285 277 261 245 238 253 261 266 275 278 319 309 313 307 301 299 288 231 230 217 224 225 223 202 197 188 176 178 171 144 161 158 152 148 142 127 123 126
25 121 355 59 351 308 259 243 243 251 241 245 257 275 336 340 320 298 305 300 296 308 306 265 240 243 223 216 205 209 189 149 174 160 149 153 162 165 161 153 150 148 149 124
142 153 265 313 316 243 318 275 263 279 281 279 283 289 302 316 310 304 303 303 310 312 307 286 260 257 246 235 203 192 143 158 157 156 145 146 161 161 145 144 151 141 134 152
224 196 213 244 229 311 297 271 200 227 286 292 278 288 326 15 298 309 58 7 334 322 312 303 290 276 257 214 187 161 156 151 151 157 145 137 140 136 132 144 147 113 121 110
250 234 211 190 248 250 260 80 78 134 281 274 276 309 352 334 312 304 359 340 314 306 301 306 307 288 261 210 166 166 166 160 165 149 133 124 120 127 134 139 131 107 105 107
147 206 225 231 240 248 262 283 313 245 253 7 307 307 312 306 304 307 317 313 309 304 301 298 297 284 284 215 160 159 144 152 121 126 122 105 100 101 90 106 98 123 112 109
176 182 198 219 243 252 238 212 221 241 290 275 279 289 287 302 299 294 296 305 312 314 330 327 304 297 8 357 159 147 145 130 128 134 120 109 96 84 92 108 102 104 116 114
235 212 213 211 217 246 197 240 223 263 279 282 275 282 283 296 285 294 294 305 311 311 319 339 323 309 67 54 6 139 128 123 122 112 106 101 84 85 99 125 125 120 123 136
226 239 237 234 239 249 249 248 254 254 256 265 265 277 277 281 283 280 279 281 296 306 316 345 5 339 316 85 56 53 61 96 115 121 119 108 118 122 99 101 121 130 149 161
223 164 213 254 260 272 267 253 260 265 264 260 254 241 248 254 258 249 260 247 256 270 222 31 338 20 309 344 27 86 96 131 136 120 129 135 126 129 115 73 65 74 57 138
203 227 224 246 257 259 267 263 248 235 246 248 245 246 231 223 247 241 242 237 224 230 243 220 207 39 304 258 218 165 155 165 133 131 143 159 145 132 124 129 110 69 76 111